Rome, NY

3:11 PM EDT on August 30, 2016 (GMT -0400)
Griffiss

Weather History for KRME - November, 2013

Change the Weather History Date:

Monday, November 4, 2013

  Actual Average Record
Temperature  
Mean Temperature 30 °F -  
Max Temperature 41 °F 53 °F 73 °F (1990)
Min Temperature 19 °F 35 °F 19 °F (2013)
Degree Days  
Heating Degree Days 35    
Moisture  
Dew Point 17 °F    
Average Humidity 62    
Maximum Humidity 89    
Minimum Humidity 36    
Precipitation  
Precipitation 0.00 in - - ()
Sea Level Pressure  
Sea Level Pressure 30.64 in    
Wind  
Wind Speed 3 mph (ESE)    
Max Wind Speed 10 mph    
Max Gust Speed -    
Visibility 10 miles    
Events      
Averages and records for this station are not official NWS values.
T = Trace of Precipitation, MM = Missing Value Source: NWS Daily Summary

Daily Weather History Graph

Daily Weather History Graph

Search for Another Location

Airport or City:

Trip Planner

Search our weather history database for the weather conditions in past years. The results will help you decide how hot, cold, wet, or windy it might be!

Date:

Astronomy

Nov. 04, 2013 Rise Set
Actual Time 6:40 AM EST 4:49 PM EST
Civil Twilight 6:10 AM EST 5:18 PM EST
Nautical Twilight 5:36 AM EST 5:52 PM EST
Astronomical Twilight 5:03 AM EST 6:25 PM EST
Moon 7:50 AM EST (11/4) 5:49 PM EST (11/4)
Length of Visible Light 11h 08m
Length of Day
10h 08m
New Moon, 2% of the Moon is Illuminated
Nov 4
New Moon
Nov 10
First Quarter
Nov 17
Full
Nov 25
Last Quarter
Dec 2
New

Hourly Weather History & Observations

Time (EST) Temp. Windchill Dew Point Humidity Pressure Visibility Wind Dir Wind Speed Gust Speed Precip Events Conditions
12:53 AM 23.0 °F - 18.0 °F 81% 30.58 in 10.0 mi Calm Calm - N/A   Clear
1:53 AM 21.9 °F 17.2 °F 17.1 °F 82% 30.59 in 10.0 mi ENE 3.5 mph - N/A   Clear
2:53 AM 21.0 °F - 17.1 °F 85% 30.61 in 10.0 mi Calm Calm - N/A   Clear
3:53 AM 19.9 °F - 17.1 °F 89% 30.62 in 10.0 mi Calm Calm - N/A   Clear
4:53 AM 19.9 °F - 16.0 °F 85% 30.64 in 10.0 mi Calm Calm - N/A   Clear
5:53 AM 19.9 °F - 16.0 °F 85% 30.66 in 10.0 mi Calm Calm - N/A   Clear
6:53 AM 19.0 °F - 16.0 °F 88% 30.67 in 10.0 mi Calm Calm - N/A   Clear
7:53 AM 23.0 °F 18.4 °F 19.0 °F 85% 30.69 in 10.0 mi SE 3.5 mph - N/A   Clear
8:53 AM 28.0 °F - 21.0 °F 75% 30.70 in 10.0 mi Calm Calm - N/A   Clear
9:53 AM 32.0 °F 26.4 °F 21.9 °F 66% 30.70 in 10.0 mi South 5.8 mph - N/A   Clear
10:53 AM 35.1 °F 29.3 °F 18.0 °F 50% 30.69 in 10.0 mi SSE 6.9 mph - N/A   Clear
11:53 AM 37.0 °F 31.0 °F 18.0 °F 46% 30.68 in 10.0 mi South 8.1 mph - N/A   Clear
12:53 PM 37.9 °F 34.4 °F 17.1 °F 43% 30.66 in 10.0 mi Variable 4.6 mph - N/A   Clear
1:53 PM 41.0 °F 35.8 °F 18.0 °F 40% 30.63 in 10.0 mi ENE 8.1 mph - N/A   Clear
2:53 PM 39.9 °F 35.1 °F 17.1 °F 40% 30.63 in 10.0 mi East 6.9 mph - N/A   Clear
3:53 PM 41.0 °F 39.0 °F 16.0 °F 36% 30.63 in 10.0 mi SE 3.5 mph - N/A   Clear
4:53 PM 35.1 °F 30.1 °F 17.1 °F 48% 30.63 in 10.0 mi SE 5.8 mph - N/A   Clear
5:53 PM 34.0 °F 29.8 °F 17.1 °F 50% 30.63 in 10.0 mi East 4.6 mph - N/A   Clear
6:53 PM 32.0 °F 25.6 °F 17.1 °F 54% 30.62 in 10.0 mi East 6.9 mph - N/A   Clear
7:53 PM 32.0 °F 24.8 °F 18.0 °F 56% 30.62 in 10.0 mi East 8.1 mph - N/A   Clear
8:53 PM 34.0 °F 26.6 °F 18.0 °F 52% 30.63 in 10.0 mi ESE 9.2 mph - N/A   Clear
9:53 PM 34.0 °F 26.6 °F 16.0 °F 48% 30.64 in 10.0 mi ESE 9.2 mph - N/A   Clear
10:53 PM 33.1 °F 24.9 °F 16.0 °F 50% 30.62 in 10.0 mi ESE 10.4 mph - N/A   Clear
11:53 PM 32.0 °F 24.2 °F 17.1 °F 54% 30.61 in 10.0 mi East 9.2 mph - N/A   Clear